Regional Weather Roundup
Issued by NWS

Home | Current Version | Previous Version | Text Only | Print | Product List | Glossary On
Versions: 1 2 3 4 5 6 7 8 9 10 11 12 13 14 15 16 17 18 19 20 21 22 23 24 25 26 27 28 29 30 31 32 33 34 35 36 37 38 39 40 41 42 43 44 45 46 47 48 49 50
801
ASUS43 KLSX 091607
RWRMO

WEATHER SUMMARY FOR MISSOURI
NATIONAL WEATHER SERVICE SPRINGFIELD MO
1000 AM CST TUE FEB 09 2016

NOTE: "FAIR" INDICATES FEW OR NO CLOUDS BELOW 12,000 FEET WITH NO
       SIGNIFICANT WEATHER AND/OR OBSTRUCTIONS TO VISIBILITY.
       CURRENT SKY AND/OR WEATHER CONDITIONS ARE NOT AVAILABLE FOR
       CHILLICOTHE AND FARMINGTON.

MOZ001>031-035>038-043-044-053-054-091700-
...NORTHERN AND WESTERN MISSOURI...

CITY           SKY/WX    TMP DP  RH WIND       PRES   REMARKS
KANSAS CTY INT MOSUNNY   20   8  60 N18G28    30.17R WCI   5
KANSAS C DTWN  SUNNY     22   8  55 NW14G23   30.19R WCI   9
LEE`S SUMMIT   SUNNY     20   7  57 NW15G25   30.16R WCI   6
ST JOSEPH      MOSUNNY   20   7  57 N20G30    30.21R WCI   4
CHILLICOTHE      N/A     18   7  62 NW9G23    30.15R WCI   7
KIRKSVILLE     FLURRIES  17   5  59 NW16G25   30.06R WCI   2

$$
MOZ066>068-077>081-088>096-101>105-091700-
...SOUTHWEST MISSOURI...

CITY           SKY/WX    TMP DP  RH WIND       PRES   REMARKS
SPRINGFIELD    MOSUNNY   28   9  44 NW28G35   30.07R WCI  13
JOPLIN         SUNNY     32  10  40 N21G28    30.18R WCI  20

$$
MOZ032>034-039>042-045>050-055>058-069>072-091700-
...CENTRAL MISSOURI...

CITY           SKY/WX    TMP DP  RH WIND       PRES   REMARKS
COLUMBIA       CLOUDY    19   7  59 NW18      30.07R WCI   4
JEFFERSON CITY CLOUDY    20   8  60 NW21G28   30.09R WCI   4
ROLLA          FLURRIES  19  10  68 NW17      30.01R WCI   4
SEDALIA        CLOUDY    20   8  60 NW22G30   30.14R WCI   3
WHITEMAN AFB   PTSUNNY   20   7  58 N15       30.13R WCI   6
WARRENSBURG    SUNNY     21  10  63 NW14G23   30.16R WCI   8
OSAGE BEACH    CLOUDY    21   7  53 NW12G22   30.09R WCI   9

$$
MOZ051-052-059>065-091700-
...EAST CENTRAL MISSOURI...

CITY           SKY/WX    TMP DP  RH WIND       PRES   REMARKS
ST LOUIS INTL  LGT SNOW  19  12  73 NW15G23   30.00R WCI   5
SPIRIT OF STL  CLOUDY    20   9  62 NW18G25   30.02R WCI   5
ST CHARLES     LGT SNOW  19  12  73 NW13      30.01R WCI   7

$$
MOZ072>076-082>087-097>100-106>115-091700-
...SOUTH CENTRAL AND SOUTHEAST MISSOURI...

CITY           SKY/WX    TMP DP  RH WIND       PRES   REMARKS
CAPE GIRARDEAU LGT SNOW  24  19  81 NW12      29.99R WCI  13
FARMINGTON     MIX PCPN  19  10  68 NW12G24   29.99R WCI   7
POPLAR BLUFF   CLOUDY    28  11  48 NW16G24   30.00R WCI  16
WEST PLAINS    CLOUDY    24   9  52 NW20G26   30.01R WCI  10

$$



USA.gov is the U.S. government's official web portal to all federal, state and local government web resources and services.